Change the Weather History Date:

Thursday, May 12, 2011

  Actual Average Record
Temperature  
Mean Temperature 67 °F 64 °F  
Max Temperature 75 °F 73 °F 92 °F (1962)
Min Temperature 58 °F 54 °F 38 °F (1960)
Degree Days  
Heating Degree Days 0 3  
Month to date heating degree days 70 55  
Since 1 July heating degree days 5052 4886  
Cooling Degree Days 2 2  
Month to date cooling degree days 51 16  
Year to date cooling degree days 76 34  
Growing Degree Days 16 (Base 50)    
Moisture  
Dew Point 60 °F    
Average Humidity 82    
Maximum Humidity 100    
Minimum Humidity 63    
Precipitation  
Precipitation 0.00 in 0.18 in 2.30 in (1971)
Month to date precipitation 1.65 2.21  
Year to date precipitation 8.66 11.52  
Sea Level Pressure  
Sea Level Pressure 29.78 in    
Wind  
Wind Speed 7 mph (SSW)    
Max Wind Speed 16 mph    
Max Gust Speed 21 mph    
Visibility 8 miles    
Events      
T = Trace of Precipitation, MM = Missing Value Source: NWS Daily Summary

Daily Weather History Graph

Daily Weather History Graph

Search for Another Location

Airport or City:

Trip Planner

Search our weather history database for the weather conditions in past years. The results will help you decide how hot, cold, wet, or windy it might be!

Date:

Astronomy

May. 12, 2011 Rise Set
Actual Time 6:09 AM CDT 8:21 PM CDT
Civil Twilight 5:39 AM CDT 8:51 PM CDT
Nautical Twilight 5:03 AM CDT 9:27 PM CDT
Astronomical Twilight 4:23 AM CDT 10:07 PM CDT
Moon 3:06 PM CDT (5/12) 2:49 AM CDT (5/12)
Length of Visible Light 15h 11m
Length of Day
14h 12m
Waxing Gibbous, 71% of the Moon is Illuminated
May 12
Waxing Gibbous
May 17
Full
May 24
Last Quarter
Jun 1
New
Jun 8
First Quarter

Hourly Weather History & Observations

Time (CDT) Temp. Dew Point Humidity Pressure Visibility Wind Dir Wind Speed Gust Speed Precip Events Conditions
12:53 AM 62.1 °F 60.1 °F 93% 29.73 in 10.0 mi South 8.1 mph - 0.01 in   Clear
1:53 AM 61.0 °F 60.1 °F 97% 29.74 in 10.0 mi SW 4.6 mph - N/A   Clear
2:08 AM 60.8 °F 59.0 °F 94% 29.77 in 10.0 mi WSW 4.6 mph - N/A   Partly Cloudy
2:53 AM 59.0 °F 59.0 °F 100% 29.75 in 8.0 mi Calm Calm - N/A   Clear
3:53 AM 59.0 °F 57.9 °F 96% 29.76 in 3.0 mi SE 3.5 mph - N/A   Mostly Cloudy
4:02 AM 57.2 °F 57.2 °F 100% 29.79 in 5.0 mi SE 4.6 mph - N/A   Partly Cloudy
4:16 AM 57.2 °F 57.2 °F 100% 29.79 in 2.5 mi South 4.6 mph - N/A   Scattered Clouds
4:20 AM 57.2 °F 57.2 °F 100% 29.79 in 1.2 mi South 4.6 mph - N/A   Scattered Clouds
4:25 AM 57.2 °F 57.2 °F 100% 29.80 in 1.5 mi South 4.6 mph - N/A   Mostly Cloudy
5:00 AM 60.8 °F 59.0 °F 94% 29.80 in 9.0 mi SSE 3.5 mph - N/A   Overcast
5:53 AM 60.1 °F 59.0 °F 96% 29.77 in 8.0 mi South 8.1 mph - N/A   Overcast
6:53 AM 60.1 °F 59.0 °F 96% 29.78 in 5.0 mi SSW 9.2 mph - N/A   Overcast
7:53 AM 61.0 °F 59.0 °F 93% 29.81 in 7.0 mi SSW 6.9 mph 16.1 mph N/A   Overcast
8:53 AM 63.0 °F 60.1 °F 90% 29.81 in 7.0 mi SSW 8.1 mph - N/A   Overcast
9:43 AM 64.4 °F 60.8 °F 88% 29.83 in 9.0 mi SW 8.1 mph - N/A   Overcast
9:53 AM 64.0 °F 60.1 °F 87% 29.81 in 9.0 mi SSW 6.9 mph - N/A   Overcast
10:34 AM 66.2 °F 60.8 °F 83% 29.85 in 10.0 mi SW 6.9 mph - N/A   Overcast
10:53 AM 66.0 °F 60.1 °F 81% 29.82 in 10.0 mi South 6.9 mph - N/A   Overcast
11:53 AM 68.0 °F 60.1 °F 76% 29.83 in 10.0 mi SSW 9.2 mph - N/A   Overcast
12:53 PM 71.1 °F 61.0 °F 70% 29.81 in 10.0 mi South 15.0 mph 20.7 mph N/A   Mostly Cloudy
1:53 PM 73.0 °F 63.0 °F 71% 29.78 in 10.0 mi SSE 11.5 mph 18.4 mph N/A   Mostly Cloudy
2:53 PM 72.0 °F 63.0 °F 73% 29.79 in 10.0 mi South 13.8 mph - N/A   Overcast
3:53 PM 73.0 °F 63.0 °F 71% 29.78 in 10.0 mi Variable 6.9 mph - N/A   Mostly Cloudy
4:11 PM 71.6 °F 62.6 °F 73% 29.80 in 10.0 mi SSW 9.2 mph - N/A   Overcast
4:32 PM 73.4 °F 62.6 °F 69% 29.80 in 10.0 mi South 5.8 mph - N/A   Mostly Cloudy
4:53 PM 73.0 °F 64.0 °F 73% 29.77 in 10.0 mi South 9.2 mph - N/A   Clear
5:53 PM 73.9 °F 64.0 °F 71% 29.75 in 10.0 mi South 8.1 mph - N/A   Partly Cloudy
6:53 PM 75.0 °F 64.0 °F 69% 29.72 in 10.0 mi South 6.9 mph - N/A   Scattered Clouds
7:53 PM 73.0 °F 62.1 °F 68% 29.71 in 10.0 mi SSW 4.6 mph - N/A   Partly Cloudy
8:53 PM 71.1 °F 61.0 °F 70% 29.73 in 10.0 mi SSW 3.5 mph - N/A   Clear
9:53 PM 70.0 °F 60.1 °F 71% 29.73 in 10.0 mi SW 4.6 mph - N/A   Clear
10:53 PM 69.1 °F 59.0 °F 70% 29.73 in 10.0 mi WSW 6.9 mph - N/A   Clear
11:53 PM 68.0 °F 55.9 °F 65% 29.74 in 10.0 mi WSW 9.2 mph - N/A   Clear